Weather History for Page, AZ

Change the Weather History Date:

Tuesday, February 19, 2013

  Actual Average Record
Temperature  
Mean Temperature 39 °F -  
Max Temperature 50 °F 52 °F 69 °F (2014)
Min Temperature 28 °F 32 °F 22 °F (1975)
Degree Days  
Heating Degree Days 26    
Moisture  
Dew Point 11 °F    
Average Humidity 30    
Maximum Humidity 49    
Minimum Humidity 12    
Precipitation  
Precipitation 0.00 in - - ()
Sea Level Pressure  
Sea Level Pressure 29.77 in    
Wind  
Wind Speed 2 mph (WNW)    
Max Wind Speed 7 mph    
Max Gust Speed -    
Visibility 9 miles    
Events      
Averages and records for this station are not official NWS values.
T = Trace of Precipitation, MM = Missing Value Source: NWS Daily Summary

Daily Weather History Graph

Daily Weather History Graph

Search for Another Location

Airport:

Trip Planner

Search our weather history database for the weather conditions in past years. The results will help you decide how hot, cold, wet, or windy it might be!

Date:

Astronomy

Feb. 19, 2013 Rise Set
Actual Time 7:09 AM MST 6:10 PM MST
Civil Twilight 6:42 AM MST 6:36 PM MST
Nautical Twilight 6:12 AM MST 7:07 PM MST
Astronomical Twilight 5:42 AM MST 7:37 PM MST
Moon 12:49 PM MST (2/19) 2:39 AM MST (2/19)
Length of Visible Light 11h 54m
Length of Day
11h 01m
Waxing Gibbous, 68% of the Moon is Illuminated
Feb 19
Waxing Gibbous
Feb 25
Full
Mar 4
Last Quarter
Mar 11
New
Mar 19
First Quarter

Hourly Weather History & Observations

Time (MST) Temp. Windchill Dew Point Humidity Pressure Visibility Wind Dir Wind Speed Gust Speed Precip Events Conditions
12:53 AM 34.0 °F - 8.1 °F 34% 29.97 in 10.0 mi Calm Calm - N/A   Clear
1:53 AM 34.0 °F - 6.1 °F 31% 29.96 in 6.0 mi Calm Calm - N/A   Haze
2:53 AM 33.1 °F - 8.1 °F 35% 29.95 in 10.0 mi Calm Calm - N/A   Clear
3:53 AM 30.9 °F - 10.9 °F 43% 29.93 in 8.0 mi Calm Calm - N/A   Clear
4:53 AM 32.0 °F 28.7 °F 9.0 °F 38% 29.91 in 10.0 mi West 3.5 mph - N/A   Clear
5:53 AM 30.0 °F - 9.0 °F 41% 29.92 in 2.5 mi Calm Calm - N/A   Haze
6:01 AM 30.2 °F - 8.6 °F 40% 29.93 in 4.0 mi Calm Calm - N/A   Haze
6:53 AM 28.9 °F - 12.0 °F 49% 29.93 in 8.0 mi Calm Calm - N/A   Clear
7:53 AM 32.0 °F - 12.0 °F 44% 29.91 in 10.0 mi Calm Calm - N/A   Clear
8:53 AM 37.0 °F 34.5 °F 10.9 °F 34% 29.91 in 10.0 mi NW 3.5 mph - N/A   Clear
9:53 AM 37.4 °F 34.9 °F 10.4 °F 33% 29.90 in 10.0 mi NW 3.5 mph - N/A   Clear
11:53 AM 43.0 °F 41.3 °F 12.0 °F 28% 29.83 in 10.0 mi North 3.5 mph - N/A   Clear
12:53 PM 46.0 °F - 12.0 °F 25% 29.77 in 10.0 mi Calm Calm - N/A   Clear
1:53 PM 46.0 °F 43.9 °F 10.9 °F 24% 29.73 in 10.0 mi Variable 4.6 mph - N/A   Clear
2:53 PM 48.0 °F - 12.0 °F 24% 29.69 in 10.0 mi North 4.6 mph - N/A   Clear
3:53 PM 48.9 °F - 12.9 °F 24% 29.66 in 10.0 mi North 5.8 mph - N/A   Clear
5:53 PM 48.0 °F - 12.9 °F 24% 29.61 in 10.0 mi Calm Calm - N/A   Clear
6:53 PM 46.0 °F 44.8 °F 14.0 °F 28% 29.60 in 10.0 mi West 3.5 mph - N/A   Clear
7:53 PM 44.1 °F 42.5 °F 15.1 °F 31% 29.59 in 4.0 mi WSW 3.5 mph - N/A   Haze
8:53 PM 46.0 °F - 14.0 °F 28% 29.56 in 10.0 mi Calm Calm - N/A   Clear
9:53 PM 44.1 °F 41.5 °F 15.1 °F 31% 29.57 in 10.0 mi South 4.6 mph - N/A   Clear
10:53 PM 45.0 °F 43.5 °F 12.0 °F 26% 29.55 in 10.0 mi South 3.5 mph - N/A   Clear
11:53 PM 46.0 °F 42.5 °F 10.9 °F 24% 29.53 in 10.0 mi SW 6.9 mph - N/A   Clear